Location: Houston
(29.7630°N, 95.3630°W)
Time: 19:59:37
(UTC-05:00)

Amateur Radio Satellites - All Passes

Search period start: 04 May 2016 19:29
Search period end: 05 May 2016 19:29
Location: Houston, 29.7630°N, 95.3630°W

Satellite Date Start Highest point End Downlink Frequencies (MHz)
Time Altitude Azimuth
RS-15 04 May 19:34:20 19:36:27 11° 97° (E) 19:38:35 29.354- 29.394
SRMSAT 04 May 19:40:38 19:45:28 25° 169° (S) 19:50:19 437.500
CANX-2 04 May 19:48:04 19:50:20 14° 70° (ENE) 19:52:35 2200.000
DOVE 4 04 May 19:55:11 20:00:11 69° 76° (ENE) 20:05:25 437.250
CUBESAT XI-V 04 May 19:56:08 19:59:04 17° 291° (WNW) 20:02:00 437.345
CUTE-I 04 May 19:57:12 20:01:31 25° 263° (W) 20:05:50 437.470
HO-68 04 May 20:00:30 20:06:52 36° 68° (ENE) 20:13:14 435.675
GOMX 1 04 May 20:10:12 20:14:47 39° 263° (W) 20:19:40 467.674
CUTE 1.7 + AOD 2 04 May 20:18:53 20:22:33 30° 73° (ENE) 20:26:13 437.475
AIST 2 04 May 20:19:24 20:23:30 76° 116° (ESE) 20:27:38 435.215
CINEMA 3 04 May 20:23:36 20:28:16 41° 74° (ENE) 20:32:57 145.822/145.860
STRAND 1 04 May 20:25:08 20:30:14 68° 102° (ESE) 20:35:19 437.568
JUGNU 04 May 20:25:45 20:30:49 30° 186° (S) 20:35:55 437.505
M-CUBED/EXP-1 PRIME 04 May 20:30:29 20:34:06 22° 259° (W) 20:37:43 437.505
Cosmos 2491 04 May 20:32:33 20:37:53 18° 278° (W) 20:43:13 435.465 / 435.565
YUBILEINY 04 May 20:33:38 20:41:24 35° 283° (WNW) 20:49:12 435.215
COMPASS 1 04 May 20:41:50 20:45:22 28° 73° (ENE) 20:48:53 437.405
SEEDS 04 May 20:41:59 20:45:54 41° 75° (ENE) 20:49:49 437.485
UWE-3 04 May 20:46:47 20:49:16 14° 69° (ENE) 20:51:41 435.000/436.395/437.385
Cosmos 2504 04 May 20:46:48 20:54:08 73° 94° (E) 21:01:15 435.465 / 435.565
AUBIESAT-1 04 May 20:48:01 20:50:59 17° 261° (W) 20:53:57 437.475
CUBEBUG 2 04 May 20:57:04 21:01:07 29° 73° (ENE) 21:05:07 437.445
AAUSAT CUBESAT 2 04 May 21:10:00 21:13:59 50° 76° (ENE) 21:17:58 437.432
ZACube-1 04 May 21:11:55 21:14:58 18° 71° (ENE) 21:18:01 437.345
AO-85 04 May 21:14:41 21:17:22 15° 51° (NE) 21:19:54 145.980
CANX-2 04 May 21:22:02 21:25:51 33° 262° (W) 21:29:41 2200.000
SRMSAT 04 May 21:28:56 21:34:12 32° 179° (S) 21:39:29 437.500
RS-15 04 May 21:35:40 21:46:42 74° 113° (ESE) 21:58:22 29.354- 29.394
HO-68 04 May 21:48:08 21:54:26 34° 261° (W) 22:00:47 435.675
Oscar 11 04 May 21:48:26 21:52:39 57° 76° (ENE) 21:56:53 145.826/435.025
CUTE 1.7 + AOD 2 04 May 21:55:52 21:58:22 15° 265° (W) 22:00:53 437.475
PRISM 04 May 21:57:19 22:01:23 51° 285° (WNW) 22:05:26 437.425
HUMSAT D 04 May 21:57:31 21:59:22 13° 69° (ENE) 22:01:12 437.325/437.525
CINEMA 3 04 May 22:02:20 22:05:27 17° 266° (W) 22:08:36 145.822/145.860
FUNcube-1 04 May 22:02:55 22:07:26 72° 77° (ENE) 22:11:53 145.935
DELFI C3 04 May 22:05:52 22:09:32 39° 75° (ENE) 22:13:13 145.870
STRAND 1 04 May 22:07:38 22:08:45 11° 295° (WNW) 22:09:53 437.568
JUGNU 04 May 22:15:14 22:19:20 19° 195° (SSW) 22:23:27 437.505
COMPASS 1 04 May 22:18:21 22:20:53 16° 265° (W) 22:23:26 437.405
SEEDS 04 May 22:20:47 22:21:43 11° 267° (W) 22:22:40 437.485
UWE-3 04 May 22:20:56 22:25:19 41° 261° (W) 22:29:40 435.000/436.395/437.385
CUBEBUG 2 04 May 22:34:03 22:37:38 21° 264° (W) 22:41:12 437.445
Cosmos 2504 04 May 22:44:40 22:48:02 14° 288° (WNW) 22:51:24 435.465 / 435.565
ZACube-1 04 May 22:46:58 22:51:00 31° 262° (W) 22:54:58 437.345
AO-85 04 May 22:53:50 22:58:05 41° 248° (WSW) 23:01:58 145.980
UNISAT 6 04 May 23:04:49 23:08:28 27° 97° (E) 23:12:07 437.425
VELOX 1 04 May 23:14:43 23:16:50 13° 68° (ENE) 23:18:56 145.980
SRMSAT 04 May 23:18:00 23:22:57 27° 190° (S) 23:27:53 437.500
TIGRISAT 04 May 23:21:13 23:25:16 42° 99° (E) 23:29:17 435.000
HUMSAT D 04 May 23:30:40 23:34:36 38° 261° (W) 23:38:32 437.325/437.525
AISAT 04 May 23:45:03 23:49:01 33° 73° (ENE) 23:53:01 437.250
ANTELSAT 04 May 23:46:27 23:50:45 83° 282° (WNW) 23:54:59 437.575/2403.000
RS-15 04 May 23:50:52 00:00:11 28° 314° (NW) 00:09:57 29.354- 29.394
AIST 1 04 May 23:56:09 23:59:03 18° 88° (E) 00:01:58
NANOSAT C BR1 04 May 23:56:40 23:59:31 18° 96° (E) 00:02:22 145.865
O/OREOS (USA 219) 05 May 00:12:11 00:14:10 13° 62° (ENE) 00:16:09 437.305
ESTCUBE 1 05 May 00:12:29 00:16:57 81° 257° (WSW) 00:21:27 437.505/2401.250
CUBEBUG 1 05 May 00:14:56 00:19:17 72° 76° (ENE) 00:23:40 437.445
PCSat 05 May 00:18:26 00:21:37 15° 54° (NE) 00:24:46 145.827
GONETS M04 05 May 00:21:21 00:29:30 43° 89° (E) 00:37:39
50 SAT 05 May 00:28:24 00:31:58 52° 259° (W) 00:35:32 437.505
DX 1 05 May 00:37:19 00:41:38 64° 259° (WSW) 00:45:59 434.975-435.025
UKube-1 05 May 00:39:27 00:43:45 76° 258° (WSW) 00:48:05 .
UNISAT 6 05 May 00:42:08 00:44:56 17° 290° (WNW) 00:47:45 437.425
JAS-2 05 May 00:42:54 00:45:39 12° 90° (E) 00:48:21 435.910
DUCHIFAT 1 05 May 00:46:47 00:50:59 77° 102° (ESE) 00:55:09 145.980
Cosmos 2499 05 May 00:47:35 00:53:26 28° 87° (E) 00:59:16 435.465 / 435.565
VELOX 1 05 May 00:48:43 00:52:52 41° 260° (W) 00:57:05 145.980
QB50P2 05 May 00:50:26 00:54:41 79° 281° (WNW) 00:58:52 145.880/145.840
POLYITAN 1 05 May 00:52:38 00:56:51 78° 283° (WNW) 01:01:02 437.675
POPSAT HIP 1 05 May 00:54:36 00:58:50 76° 283° (WNW) 01:03:00 437.405
QB50P1 05 May 00:57:37 01:01:49 67° 284° (WNW) 01:05:58 145.935-145.965
TIGRISAT 05 May 01:00:04 01:01:32 12° 292° (WNW) 01:03:00 435.000
SPROUT 05 May 01:04:58 01:09:16 80° 260° (W) 01:13:36 437.525
SRMSAT 05 May 01:08:24 01:11:35 15° 198° (SSW) 01:14:47 437.500
BUGSAT 1 05 May 01:18:56 01:23:06 87° 98° (E) 01:27:12 437.445
AISAT 05 May 01:22:48 01:25:31 16° 265° (W) 01:28:14 437.250
TISAT 1 05 May 01:30:22 01:34:29 52° 75° (ENE) 01:38:38 437.305
NANOSAT C BR1 05 May 01:31:41 01:35:11 26° 288° (WNW) 01:38:41 145.865
AIST 1 05 May 01:32:51 01:36:23 25° 281° (W) 01:39:58
DANDE 05 May 01:36:03 01:38:01 11° 71° (ENE) 01:40:02 436.750
BEESAT 05 May 01:40:11 01:41:00 10° 66° (ENE) 01:41:50 436.000
O/OREOS (USA 219) 05 May 01:49:29 01:53:46 44° 256° (WSW) 01:57:59 437.305
Oscar 19 05 May 01:50:21 01:54:12 21° 96° (E) 01:58:00 437.125/150
PCSat 05 May 02:00:02 02:05:20 58° 249° (WSW) 02:10:37 145.827
CUSAT 1 05 May 02:10:24 02:17:51 48° 79° (E) 02:25:32 437.405
GONETS M04 05 May 02:18:37 02:26:17 33° 284° (WNW) 02:34:00
JAS-2 05 May 02:23:27 02:31:23 85° 103° (ESE) 02:38:59 435.910
ITUPSAT 1 05 May 02:32:45 02:37:14 43° 73° (ENE) 02:41:44 437.325
Cosmos 2499 05 May 02:39:51 02:46:14 36° 281° (WNW) 02:52:38 435.465 / 435.565
SWISSCUBE 05 May 02:40:38 02:45:19 62° 75° (ENE) 02:50:00 437.505
BEESAT 05 May 03:13:32 03:18:13 61° 259° (W) 03:22:56 436.000
DANDE 05 May 03:14:00 03:21:21 75° 83° (E) 03:29:44 436.750
ITAMSAT 1 05 May 03:14:04 03:17:58 21° 96° (E) 03:21:52 435.822/435.867
MOZHAYETS 4 05 May 03:26:55 03:27:29 10° 67° (ENE) 03:28:02
Oscar 19 05 May 03:28:49 03:33:29 34° 288° (WNW) 03:38:07 437.125/150
Gurwin Techsat 1B 05 May 03:42:25 03:47:43 69° 285° (WNW) 03:52:58 435.225
CUSAT 1 05 May 03:53:06 03:59:39 30° 271° (W) 04:06:20 437.405
AO-7 05 May 04:06:03 04:12:59 29° 99° (E) 04:19:53 29.400- 29.500
JAS-2 05 May 04:10:50 04:15:19 17° 298° (WNW) 04:19:47 435.910
ITUPSAT 1 05 May 04:12:48 04:15:12 14° 266° (W) 04:17:35 437.325
BEESAT 3 05 May 04:19:59 04:23:49 53° 246° (WSW) 04:27:38 437.485
BEESAT 2 05 May 04:32:01 04:35:59 74° 245° (WSW) 04:39:55 435.950
RS-15 05 May 04:35:17 04:40:22 13° 29° (NNE) 04:45:28 29.354- 29.394
KKS-1 05 May 04:38:16 04:42:40 59° 259° (W) 04:47:06 437.445
STARS 05 May 04:48:01 04:52:27 86° 76° (ENE) 04:56:55 437.465
ITAMSAT 1 05 May 04:52:47 04:57:25 34° 289° (WNW) 05:02:01 435.822/435.867
YUBILEINY 05 May 04:57:34 05:00:52 12° 68° (ENE) 05:04:09 435.215
DANDE 05 May 04:58:58 05:03:43 18° 272° (W) 05:08:49 436.750
MOZHAYETS 4 05 May 04:59:37 05:04:06 56° 259° (W) 05:08:36
CUBESAT XI-V 05 May 05:16:05 05:19:12 18° 70° (ENE) 05:22:18 437.345
Cosmos 2491 05 May 05:35:11 05:39:24 14° 80° (E) 05:43:37 435.465 / 435.565
AO-7 05 May 05:57:54 06:05:50 51° 292° (WNW) 06:13:47 29.400- 29.500
SO-50 05 May 05:59:49 06:03:50 26° 110° (ESE) 06:07:52 436.795
HORYU 2 05 May 06:02:30 06:06:55 87° 100° (E) 06:11:20 437.375
ISS 05 May 06:04:41 06:07:54 65° 132° (SE) 06:11:08 145.825
AIST 2 05 May 06:24:37 06:28:43 68° 245° (WSW) 06:32:48 435.215
CUTE-I 05 May 06:40:34 06:44:23 20° 96° (E) 06:48:10 437.470
RS-15 05 May 06:44:56 06:56:49 50° 56° (NE) 07:08:32 29.354- 29.394
Cosmos 2504 05 May 06:47:03 06:52:02 18° 74° (ENE) 06:57:11 435.465 / 435.565
YUBILEINY 05 May 06:49:59 06:58:43 86° 84° (E) 07:07:29 435.215
CUBESAT XI-V 05 May 06:52:13 06:56:17 31° 262° (W) 07:00:23 437.345
NOAA 15 05 May 07:13:09 07:18:28 71° 102° (ESE) 07:23:45 137.62
NOAA 18 05 May 07:14:14 07:19:38 61° 102° (ESE) 07:25:00 137.9125
BRITE-PL 05 May 07:19:36 07:25:11 57° 100° (E) 07:30:31 437.365/2234.400
Cubesat XI-IV 05 May 07:24:36 07:29:51 58° 101° (E) 07:35:05 437.490
Cosmos 2491 05 May 07:26:12 07:35:01 84° 275° (W) 07:43:55 435.465 / 435.565
PHONESAT 2.4 05 May 07:33:01 07:35:12 17° 141° (SE) 07:37:22 2401.200-2431.200
STRAND 1 05 May 07:35:01 07:39:56 51° 74° (ENE) 07:44:52 437.568
SO-50 05 May 07:39:58 07:44:10 28° 304° (WNW) 07:48:25 436.795
ISS 05 May 07:43:54 07:44:39 11° 326° (NNW) 07:45:23 145.825
LilacSat-2 05 May 07:51:06 07:54:49 55° 284° (WNW) 07:58:30 437.200
DOVE 4 05 May 08:01:17 08:05:36 30° 96° (E) 08:09:42 437.250
M-CUBED/EXP-1 PRIME 05 May 08:15:43 08:19:17 48° 104° (ESE) 08:22:37 437.505
GOMX 1 05 May 08:17:59 08:23:20 77° 284° (WNW) 08:28:21 467.674
CUTE-I 05 May 08:19:34 08:24:26 38° 288° (WNW) 08:29:19 437.470
CINEMA 3 05 May 08:26:30 08:28:49 14° 93° (E) 08:31:05 145.822/145.860
AUBIESAT-1 05 May 08:31:55 08:35:33 67° 105° (ESE) 08:38:57 437.475
SEEDS 05 May 08:34:11 08:35:21 11° 94° (E) 08:36:32 437.485
Cosmos 2504 05 May 08:38:01 08:45:46 70° 267° (W) 08:54:08 435.465 / 435.565
PRISM 05 May 08:40:41 08:44:33 45° 75° (ENE) 08:48:28 437.425
YUBILEINY 05 May 08:50:34 08:54:17 13° 280° (W) 08:58:02 435.215
NOAA 15 05 May 08:56:10 08:57:34 11° 296° (WNW) 08:58:57 137.62
NOAA 18 05 May 08:57:08 08:59:41 14° 295° (WNW) 09:02:15 137.9125
RS-15 05 May 08:57:50 09:09:00 42° 254° (WSW) 09:20:02 29.354- 29.394
BRITE-PL 05 May 08:59:49 09:03:01 16° 294° (WNW) 09:06:11 437.365/2234.400
AAUSAT CUBESAT 2 05 May 09:00:00 09:01:54 13° 94° (E) 09:03:47 437.432
Cubesat XI-IV 05 May 09:06:52 09:09:22 13° 294° (WNW) 09:11:51 437.490
PHONESAT 2.4 05 May 09:08:47 09:11:50 48° 333° (NNW) 09:14:53 2401.200-2431.200
CANX-2 05 May 09:12:30 09:16:41 63° 100° (E) 09:20:53 2200.000
STRAND 1 05 May 09:16:58 09:19:18 13° 266° (W) 09:21:37 437.568
HO-68 05 May 09:21:21 09:28:28 67° 103° (ESE) 09:35:34 435.675
Cosmos 2491 05 May 09:29:52 09:33:00 12° 292° (WNW) 09:36:09 435.465 / 435.565
DOVE 4 05 May 09:39:21 09:43:01 21° 291° (WNW) 09:46:33 437.250
Oscar 11 05 May 09:42:45 09:45:33 17° 95° (E) 09:48:19 145.826/435.025
CUTE 1.7 + AOD 2 05 May 09:44:49 09:48:57 56° 284° (WNW) 09:53:06 437.475
FUNcube-1 05 May 09:58:05 10:01:07 20° 96° (E) 10:04:09 145.935
UNISAT 6 05 May 09:59:02 10:01:23 14° 69° (ENE) 10:03:42 437.425
CINEMA 3 05 May 10:01:59 10:06:04 35° 287° (WNW) 10:09:59 145.822/145.860
COMPASS 1 05 May 10:05:18 10:09:25 64° 283° (WNW) 10:13:33 437.405
SEEDS 05 May 10:07:13 10:11:10 41° 285° (WNW) 10:15:07 437.485
TIGRISAT 05 May 10:14:28 10:17:49 20° 71° (ENE) 10:21:09 435.000
UWE-3 05 May 10:16:39 10:20:47 61° 101° (E) 10:24:52 435.000/436.395/437.385
CUBEBUG 2 05 May 10:30:07 10:34:16 56° 284° (WNW) 10:38:19 437.445
AAUSAT CUBESAT 2 05 May 10:33:39 10:37:26 35° 286° (WNW) 10:41:13 437.432
ANTELSAT 05 May 10:38:55 10:43:16 41° 74° (ENE) 10:47:34 437.575/2403.000
ZACube-1 05 May 10:40:56 10:45:06 81° 102° (ESE) 10:49:13 437.345
GONETS M04 05 May 10:41:48 10:46:01 14° 69° (ENE) 10:50:12
PHONESAT 2.4 05 May 10:47:18 10:49:09 14° 349° (NNW) 10:50:59 2401.200-2431.200
HO-68 05 May 11:10:53 11:15:28 19° 297° (WNW) 11:20:03 435.675
Oscar 11 05 May 11:17:55 11:21:38 29° 287° (WNW) 11:25:21 145.826/435.025
HUMSAT D 05 May 11:19:50 11:23:47 50° 100° (E) 11:27:45 437.325/437.525
AO-85 05 May 11:21:28 11:25:38 23° 109° (ESE) 11:29:52 145.980
DELFI C3 05 May 11:23:57 11:27:49 49° 284° (WNW) 11:31:41 145.870
DUCHIFAT 1 05 May 11:33:07 11:36:37 25° 72° (ENE) 11:40:06 145.980
UNISAT 6 05 May 11:33:15 11:37:41 43° 260° (W) 11:42:04 437.425
FUNcube-1 05 May 11:34:02 11:37:15 22° 288° (WNW) 11:40:27 145.935
QB50P2 05 May 11:37:07 11:40:58 33° 73° (ENE) 11:44:50 145.880/145.840
POLYITAN 1 05 May 11:39:17 11:43:11 34° 73° (ENE) 11:47:03 437.675
POPSAT HIP 1 05 May 11:41:06 11:44:59 35° 74° (ENE) 11:48:53 437.405
QB50P1 05 May 11:43:57 11:47:54 38° 74° (ENE) 11:51:54 145.935-145.965
AIST 1 05 May 11:45:16 11:49:27 42° 81° (E) 11:53:36
TIGRISAT 05 May 11:50:12 11:54:15 29° 262° (W) 11:58:16 435.000
BUGSAT 1 05 May 12:02:56 12:06:28 26° 72° (ENE) 12:10:00 437.445
50 SAT 05 May 12:04:42 12:07:22 19° 97° (E) 12:10:02 437.505
CUBEBUG 1 05 May 12:10:20 12:13:45 22° 96° (E) 12:17:07 437.445
ESTCUBE 1 05 May 12:11:14 12:15:20 33° 98° (E) 12:19:27 437.505/2401.250
NANOSAT C BR1 05 May 12:16:47 12:21:03 82° 257° (WSW) 12:25:20 145.865
ANTELSAT 05 May 12:17:38 12:20:03 14° 265° (W) 12:22:26 437.575/2403.000
PHONESAT 2.4 05 May 12:25:26 12:26:51 12° 6° (N) 12:28:17 2401.200-2431.200
JAS-2 05 May 12:31:14 12:35:11 18° 63° (ENE) 12:39:23 435.910
DX 1 05 May 12:31:42 12:35:42 34° 99° (E) 12:39:40 434.975-435.025
UKube-1 05 May 12:33:00 12:36:43 28° 98° (E) 12:40:25 .
GONETS M04 05 May 12:35:01 12:43:47 87° 264° (W) 12:52:28
Cosmos 2499 05 May 12:35:31 12:43:18 53° 82° (E) 12:51:36 435.465 / 435.565
VELOX 1 05 May 12:44:32 12:48:57 59° 101° (E) 12:53:19 145.980
SPROUT 05 May 12:57:30 13:01:09 27° 97° (E) 13:04:45 437.525
AO-85 05 May 13:00:51 13:05:53 38° 302° (WNW) 13:10:58 145.980
Oscar 19 05 May 13:02:01 13:05:16 17° 67° (ENE) 13:08:32 437.125/150
DUCHIFAT 1 05 May 13:09:09 13:12:13 19° 264° (W) 13:15:17 145.980
QB50P2 05 May 13:14:28 13:16:49 14° 265° (W) 13:19:09 145.880/145.840
POLYITAN 1 05 May 13:16:44 13:19:01 14° 265° (W) 13:21:18 437.675
AISAT 05 May 13:17:08 13:21:28 51° 285° (WNW) 13:25:45 437.250
POPSAT HIP 1 05 May 13:18:36 13:20:48 14° 265° (W) 13:23:01 437.405
QB50P1 05 May 13:21:59 13:23:46 12° 266° (W) 13:25:34 145.935-145.965
TISAT 1 05 May 13:22:09 13:24:06 13° 94° (E) 13:26:02 437.305
AIST 1 05 May 13:25:24 13:26:33 11° 274° (W) 13:27:43
50 SAT 05 May 13:38:27 13:40:58 18° 288° (WNW) 13:43:30 437.505
BUGSAT 1 05 May 13:38:49 13:41:45 18° 264° (W) 13:44:43 437.445
CUBEBUG 1 05 May 13:46:20 13:49:54 24° 289° (WNW) 13:53:27 437.445
ESTCUBE 1 05 May 13:48:57 13:51:50 17° 291° (WNW) 13:54:43 437.505/2401.250
PHONESAT 2.4 05 May 14:01:32 14:04:21 29° 22° (NNE) 14:07:09 2401.200-2431.200
DX 1 05 May 14:08:59 14:11:32 15° 291° (WNW) 14:14:07 434.975-435.025
UKube-1 05 May 14:09:33 14:12:31 18° 290° (WNW) 14:15:29 .
ISS 05 May 14:13:22 14:16:33 49° 44° (NE) 14:19:43 145.825
JAS-2 05 May 14:13:48 14:19:29 56° 261° (W) 14:25:57 435.910
O/OREOS (USA 219) 05 May 14:16:16 14:20:35 42° 104° (ESE) 14:24:56 437.305
ITAMSAT 1 05 May 14:26:48 14:30:17 18° 68° (ENE) 14:33:45 435.822/435.867
Cosmos 2499 05 May 14:29:44 14:35:55 25° 274° (W) 14:42:24 435.465 / 435.565
SPROUT 05 May 14:33:57 14:36:51 18° 290° (WNW) 14:39:45 437.525
GONETS M04 05 May 14:36:36 14:39:13 12° 281° (W) 14:41:50
Oscar 19 05 May 14:39:17 14:44:10 43° 261° (W) 14:49:07 437.125/150
ITUPSAT 1 05 May 14:40:09 14:43:27 18° 96° (E) 14:46:44 437.325
SWISSCUBE 05 May 14:47:21 14:51:20 26° 98° (E) 14:55:17 437.505
PCSat 05 May 14:52:24 14:57:30 44° 110° (ESE) 15:02:37 145.827
TISAT 1 05 May 14:55:59 14:59:49 35° 286° (WNW) 15:03:38 437.305
Gurwin Techsat 1B 05 May 14:57:17 15:02:36 79° 257° (WSW) 15:07:55 435.225
AO-7 05 May 14:59:31 15:05:42 24° 61° (ENE) 15:11:52 29.400- 29.500
CUSAT 1 05 May 15:09:19 15:12:27 42° 91° (E) 15:16:26 437.405
BEESAT 05 May 15:19:36 15:24:17 55° 101° (E) 15:28:56 436.000
PHONESAT 2.4 05 May 15:38:18 15:41:12 35° 216° (SW) 15:44:07 2401.200-2431.200
O/OREOS (USA 219) 05 May 15:57:47 16:00:09 14° 298° (WNW) 16:02:31 437.305
ITAMSAT 1 05 May 16:04:33 16:09:23 40° 260° (W) 16:14:14 435.822/435.867
SO-50 05 May 16:16:39 16:21:13 52° 60° (ENE) 16:25:37 436.795
ITUPSAT 1 05 May 16:17:01 16:21:16 33° 288° (WNW) 16:25:31 437.325
DANDE 05 May 16:20:10 16:22:52 50° 280° (W) 16:26:09 436.750
SWISSCUBE 05 May 16:25:10 16:28:57 24° 290° (WNW) 16:32:44 437.505
JUGNU 05 May 16:34:17 16:38:39 22° 167° (SSE) 16:43:03 437.505
KKS-1 05 May 16:35:19 16:39:32 41° 99° (E) 16:43:43 437.445
PCSat 05 May 16:37:09 16:41:02 20° 304° (NW) 16:44:57 145.827
STARS 05 May 16:44:06 16:47:42 24° 97° (E) 16:51:16 437.465
AO-7 05 May 16:49:38 16:57:47 63° 256° (WSW) 17:05:59 29.400- 29.500
HORYU 2 05 May 16:54:36 16:58:42 37° 73° (ENE) 17:02:48 437.375
BEESAT 05 May 16:59:58 17:01:32 12° 294° (WNW) 17:03:05 436.000
MOZHAYETS 4 05 May 17:00:31 17:04:59 53° 100° (E) 17:09:28
SRMSAT 05 May 17:40:38 17:43:54 15° 162° (SSE) 17:47:10 437.500
Cosmos 2491 05 May 17:44:48 17:52:46 37° 77° (ENE) 18:00:38 435.465 / 435.565
YUBILEINY 05 May 17:50:18 17:55:48 19° 82° (E) 18:01:17 435.215
CUTE-I 05 May 17:57:01 18:00:36 19° 68° (ENE) 18:04:12 437.470
SO-50 05 May 17:59:54 18:01:07 11° 254° (WSW) 18:02:18 436.795
BEESAT 3 05 May 18:04:47 18:08:41 73° 296° (WNW) 18:12:37 437.485
KKS-1 05 May 18:13:34 18:15:41 13° 292° (WNW) 18:17:47 437.445
BEESAT 2 05 May 18:18:09 18:22:06 87° 118° (ESE) 18:26:06 435.950
STARS 05 May 18:20:34 18:23:52 21° 290° (WNW) 18:27:08 437.465
JUGNU 05 May 18:22:05 18:27:10 31° 177° (S) 18:32:18 437.505
BRITE-PL 05 May 18:24:26 18:28:39 31° 71° (ENE) 18:33:11 437.365/2234.400
NOAA 15 05 May 18:27:09 18:32:19 62° 74° (ENE) 18:37:32 137.62
LilacSat-2 05 May 18:27:20 18:30:38 27° 73° (ENE) 18:33:57 437.200
HORYU 2 05 May 18:32:53 18:35:18 14° 265° (W) 18:37:44 437.375
NOAA 18 05 May 18:34:26 18:39:53 65° 75° (ENE) 18:45:20 137.9125
MOZHAYETS 4 05 May 18:40:26 18:41:38 11° 293° (WNW) 18:42:51
Cubesat XI-IV 05 May 18:40:36 18:45:46 53° 74° (ENE) 18:50:56 437.490
CUBESAT XI-V 05 May 18:54:03 18:58:46 81° 283° (WNW) 19:03:28 437.345
M-CUBED/EXP-1 PRIME 05 May 18:55:42 18:59:44 29° 68° (ENE) 19:03:45 437.505
DOVE 4 05 May 19:00:54 19:04:17 18° 68° (ENE) 19:07:45 437.250
AUBIESAT-1 05 May 19:11:21 19:15:33 35° 69° (ENE) 19:19:43 437.475
GOMX 1 05 May 19:19:05 19:23:59 59° 75° (ENE) 19:29:11 467.674
Cosmos 2504 05 May 19:20:47 19:24:23 14° 83° (E) 19:27:56 435.465 / 435.565
